Wind_Speed
4 4 5 7 9 11 11 11 11 13 15 18 19 19 20 23 24 24 24 25 26 26 26 26 27 27 28 28 29 29 29 30 30 30 30 30 29 28 27 26 25 26 26 26
5 7 9 10 11 12 11 11 12 15 17 18 19 19 21 22 25 27 27 27 27 27 27 27 27 27 28 28 29 29 29 29 30 31 31 31 30 28 27 26 26 25 25 25
6 9 12 11 12 12 11 12 13 17 18 17 18 20 21 23 25 26 26 27 28 28 28 28 28 28 28 29 29 29 29 30 31 31 31 30 29 28 28 27 27 26 25 26
6 10 11 12 12 11 12 13 14 17 17 16 16 18 21 25 25 26 26 26 27 28 29 30 30 29 29 29 29 29 29 30 31 31 30 30 29 28 28 27 26 26 26 26
8 10 11 13 13 13 13 12 13 15 16 16 15 16 21 25 25 26 28 27 28 29 31 32 31 31 30 29 30 30 29 29 30 30 30 30 29 28 27 26 26 26 25 26
10 11 12 13 13 14 14 13 11 14 15 16 17 18 21 25 26 28 28 29 30 31 32 32 32 31 31 30 30 30 30 30 30 30 29 29 28 27 26 25 25 25 25 25
10 13 13 14 14 14 14 13 13 14 15 17 19 21 23 25 26 27 29 31 31 32 32 32 32 30 31 31 31 30 30 30 30 29 28 28 28 27 26 25 25 24 24 24
9 11 14 15 15 15 15 15 15 17 17 19 19 19 21 24 27 28 30 31 31 32 32 33 33 32 31 31 31 30 29 29 28 28 28 28 28 26 25 24 24 23 23 23
10 12 14 15 15 15 15 14 15 16 17 18 18 21 23 24 27 29 31 31 31 32 33 34 33 32 31 31 31 30 29 28 27 27 26 26 25 24 24 23 23 23 23 22
12 13 13 14 15 14 15 15 15 15 17 18 19 19 24 26 27 30 32 33 32 33 33 33 33 33 31 31 30 29 28 27 27 26 25 24 23 23 23 23 22 22 22 22
13 14 13 14 14 13 15 15 16 16 17 19 20 21 24 26 30 31 32 33 33 34 35 33 32 32 31 30 29 28 28 27 25 24 23 23 22 22 23 23 22 21 21 21
13 14 14 14 15 15 16 16 16 18 18 18 20 22 25 28 29 30 31 32 33 33 33 32 31 30 29 29 29 28 27 27 25 24 23 22 22 22 22 22 21 21 20 20
14 15 14 14 16 17 17 17 17 19 20 21 22 22 25 29 29 30 31 32 33 32 31 30 29 29 29 29 28 27 27 26 25 24 24 23 22 22 21 20 19 19 19 19
15 15 15 15 16 18 18 18 18 20 21 22 22 24 27 29 30 31 32 32 32 31 30 30 29 28 27 27 27 27 26 25 24 24 24 24 23 21 19 18 17 18 18 18
16 16 16 16 17 18 19 20 20 21 22 23 24 26 28 29 30 30 31 31 30 29 30 30 29 27 27 26 26 26 25 25 25 24 24 23 21 19 18 17 17 17 17 17
17 17 17 17 17 19 19 20 20 21 22 24 25 26 28 29 30 30 30 29 29 29 29 29 28 28 27 26 26 25 25 24 24 23 22 22 21 18 17 16 15 15 16 17
18 18 18 18 18 20 20 20 21 21 23 24 26 27 28 29 29 29 29 29 29 29 29 28 28 27 26 26 25 24 24 24 23 22 21 21 20 18 17 16 15 15 16 16
18 18 19 19 20 20 21 21 22 22 23 25 26 27 28 28 28 29 29 30 29 29 29 29 28 27 26 26 25 24 23 23 22 21 20 19 19 17 16 15 15 14 15 16
18 18 19 19 20 22 22 21 22 23 25 26 27 27 27 27 27 28 29 29 29 30 30 29 28 26 26 25 24 23 22 22 21 20 18 18 18 16 15 15 15 15 15 15
18 19 21 21 21 23 24 23 24 25 26 26 26 27 28 28 28 28 29 30 30 30 29 28 27 26 25 24 23 22 21 20 20 19 18 18 17 16 16 15 14 15 15 15
21 22 22 23 23 24 25 25 25 25 27 27 27 29 29 29 29 30 30 30 30 29 28 27 27 25 24 23 22 21 20 20 19 19 18 17 16 16 15 14 14 14 14 13
20 21 23 24 25 25 26 26 26 27 28 29 29 29 29 29 30 30 30 29 29 28 27 26 26 24 23 22 21 21 20 19 19 18 17 16 16 15 15 14 13 13 13 13
22 23 24 25 25 27 28 28 29 29 30 30 30 30 30 30 29 29 29 28 27 27 26 26 25 24 22 21 20 19 19 18 18 18 17 16 15 14 14 13 12 12 12 12
24 24 26 26 27 28 29 30 31 31 31 31 31 31 31 30 30 30 30 28 27 27 26 25 24 23 21 20 19 18 18 18 17 16 16 15 15 14 13 12 12 12 11 11
27 28 28 28 29 30 31 31 32 32 32 32 32 31 31 31 30 30 29 27 27 26 25 23 22 21 20 19 17 16 16 16 15 15 15 15 14 12 12 12 12 12 12 12
28 29 30 30 31 32 32 32 33 33 32 32 32 31 30 29 29 28 27 26 25 23 22 21 20 19 17 16 16 16 16 15 15 14 14 13 12 12 12 12 12 11 11 11
Wind_Direction
333 319 301 281 285 287 289 285 289 289 286 285 292 299 301 302 308 313 311 311 311 309 311 312 312 312 310 308 308 308 306 305 306 304 304 303 299 297 295 294 297 295 292 293
308 284 275 285 289 288 288 292 288 283 290 293 297 304 306 302 306 312 313 312 313 314 314 313 312 312 311 310 310 308 306 305 306 305 304 303 300 297 296 297 297 298 296 295
270 276 279 281 281 282 287 291 285 286 290 296 298 304 304 303 305 308 312 313 311 312 313 314 313 312 311 311 311 309 307 307 306 306 305 303 299 296 295 294 295 297 297 293
281 282 290 289 287 289 291 290 287 293 294 296 299 298 301 300 302 305 310 311 311 313 315 316 313 312 311 310 311 310 309 308 307 306 306 304 302 298 294 294 294 295 295 293
281 285 290 289 288 289 292 290 291 295 297 299 298 293 291 296 301 306 312 314 314 316 317 316 314 313 311 311 311 311 310 308 307 306 306 304 302 299 295 293 293 293 293 293
288 291 290 290 291 291 292 295 296 295 294 287 286 287 288 294 301 307 310 311 314 316 316 316 315 313 313 312 312 311 310 308 307 306 305 303 301 298 295 293 293 292 292 291
297 296 299 297 297 300 298 301 298 291 290 291 292 293 292 296 300 304 306 308 312 315 316 316 315 313 313 312 312 312 312 311 308 305 304 303 301 299 296 294 293 293 292 291
282 284 291 295 297 297 298 299 298 300 299 303 305 300 292 297 302 307 309 311 311 314 314 314 312 312 312 312 313 313 313 312 310 307 305 303 300 299 298 296 294 294 295 294
280 275 283 289 293 295 297 299 300 303 303 303 303 303 301 301 305 309 310 310 312 314 315 315 314 314 313 313 313 313 312 311 310 308 307 305 302 300 298 296 294 293 293 295
288 287 288 293 297 300 301 305 307 304 304 305 306 303 299 303 306 310 312 314 316 315 316 317 316 316 314 314 314 314 314 312 310 308 306 306 305 302 300 296 295 295 293 295
294 296 296 297 302 300 298 300 304 305 303 302 304 304 299 302 307 309 312 314 315 316 317 318 317 316 315 315 315 315 315 313 311 309 308 306 305 304 303 298 295 294 293 295
297 298 298 298 299 299 301 304 304 303 304 305 306 308 306 305 308 312 315 316 317 319 319 318 317 317 316 318 317 317 316 315 312 309 307 308 308 306 305 301 297 295 294 294
298 300 301 303 302 303 305 307 306 307 308 309 306 306 305 308 313 316 318 318 318 319 319 320 319 319 319 320 319 318 317 316 314 311 309 308 309 308 307 302 299 298 296 294
298 299 298 297 296 298 301 303 304 306 308 307 304 303 305 310 312 314 316 318 318 319 320 320 319 319 320 321 320 320 318 318 317 315 313 311 309 308 306 304 301 300 298 297
297 298 301 300 301 303 304 303 302 302 305 305 306 306 308 311 311 314 317 319 319 319 320 320 321 320 321 322 322 321 319 318 318 317 315 315 313 310 307 305 305 304 303 302
303 303 303 303 305 305 307 307 307 305 304 304 306 307 309 312 313 315 317 318 319 319 320 320 321 321 321 322 322 321 320 319 318 317 316 316 318 314 309 307 306 307 306 306
303 306 307 308 310 310 309 312 311 308 307 306 306 308 310 313 315 317 317 318 318 319 320 320 321 320 321 323 322 321 322 322 319 317 317 317 319 318 314 309 305 305 305 305
301 302 305 308 309 307 311 311 309 307 306 305 307 310 312 314 315 315 315 317 319 320 320 319 320 320 322 324 323 322 323 323 321 319 318 319 320 318 319 316 312 309 309 310
302 303 307 310 309 307 311 311 309 308 306 307 308 309 311 313 313 314 316 318 318 319 320 319 319 320 321 322 324 325 325 323 321 320 319 321 324 324 322 318 317 315 315 318
304 303 305 308 308 306 310 310 309 307 305 307 309 310 311 311 311 313 316 317 317 317 317 318 319 319 321 322 324 324 324 323 322 322 321 321 323 325 325 323 320 321 321 323
302 304 304 306 306 305 308 309 309 306 306 308 309 310 309 310 311 313 314 315 316 316 316 316 318 318 319 321 322 320 319 320 320 321 321 322 323 324 327 325 324 324 325 323
298 300 302 306 306 306 306 306 307 307 306 306 308 309 309 310 310 311 313 315 316 315 315 316 316 316 316 317 318 319 319 319 319 321 322 321 323 325 326 327 325 323 323 321
295 297 299 301 301 302 302 304 305 305 306 306 307 308 308 309 310 311 311 313 315 315 315 315 316 316 314 315 316 318 319 318 318 318 320 321 322 324 325 326 324 322 324 324
296 297 297 299 300 299 300 302 303 304 306 306 306 306 306 308 309 310 311 310 312 315 315 315 315 316 314 313 314 315 316 316 316 317 317 319 320 321 323 324 324 324 324 327
294 297 298 299 300 300 300 301 302 304 305 305 305 305 305 306 308 310 311 311 312 314 314 314 315 315 313 312 313 315 316 315 316 317 316 317 318 320 322 322 323 324 325 326
291 294 297 299 301 301 301 301 302 303 303 304 305 305 305 306 308 308 308 309 311 312 313 313 315 315 315 314 315 317 317 318 319 321 320 319 321 322 321 321 321 320 321 324
Height
5879 5880 5880 5881 5880 5879 5879 5879 5878 5877 5876 5874 5871 5870 5867 5862 5858 5855 5852 5849 5847 5844 5840 5837 5834 5831 5828 5824 5821 5818 5814 5811 5808 5805 5802 5800 5798 5795 5793 5792 5791 5789 5788 5786
5880 5880 5880 5879 5878 5877 5877 5877 5876 5875 5873 5870 5868 5866 5864 5860 5855 5852 5849 5846 5842 5839 5836 5833 5829 5826 5823 5819 5816 5812 5809 5806 5802 5799 5796 5793 5790 5789 5787 5786 5785 5783 5782 5781
5879 5880 5878 5877 5876 5876 5875 5874 5873 5871 5869 5868 5865 5863 5860 5856 5853 5849 5846 5842 5838 5835 5832 5828 5825 5821 5818 5814 5811 5807 5804 5800 5797 5793 5790 5787 5784 5783 5781 5780 5779 5777 5776 5775
5878 5877 5876 5875 5874 5873 5871 5871 5869 5868 5866 5865 5864 5860 5856 5851 5849 5846 5843 5838 5834 5831 5827 5824 5820 5816 5812 5809 5806 5802 5798 5795 5791 5787 5784 5781 5778 5776 5775 5773 5772 5771 5770 5769
5875 5874 5873 5872 5871 5869 5868 5867 5866 5864 5863 5861 5860 5858 5854 5848 5844 5842 5839 5835 5830 5826 5823 5819 5815 5811 5806 5803 5800 5796 5792 5789 5785 5781 5778 5775 5772 5770 5768 5767 5766 5764 5763 5762
5872 5872 5871 5869 5868 5866 5865 5863 5862 5861 5860 5859 5857 5855 5850 5845 5842 5839 5835 5831 5826 5822 5818 5814 5809 5805 5801 5798 5794 5791 5787 5783 5779 5775 5772 5769 5766 5763 5762 5760 5759 5758 5757 5756
5871 5870 5868 5866 5865 5864 5862 5861 5859 5858 5858 5856 5854 5851 5847 5842 5840 5836 5832 5827 5823 5818 5813 5809 5804 5800 5795 5792 5788 5784 5781 5777 5773 5769 5766 5763 5760 5757 5755 5754 5753 5751 5750 5749
5870 5869 5866 5864 5862 5861 5860 5859 5857 5855 5853 5852 5849 5847 5842 5839 5835 5832 5827 5823 5818 5813 5808 5803 5798 5793 5790 5786 5782 5778 5774 5771 5766 5763 5760 5756 5753 5751 5749 5747 5746 5745 5744 5743
5866 5865 5864 5861 5860 5858 5857 5855 5854 5852 5850 5849 5846 5843 5837 5835 5832 5827 5823 5817 5813 5808 5803 5798 5792 5787 5784 5779 5775 5771 5768 5764 5760 5757 5753 5750 5747 5745 5742 5741 5740 5739 5738 5737
5862 5861 5861 5859 5857 5855 5853 5852 5850 5848 5846 5844 5843 5840 5835 5829 5826 5821 5817 5811 5807 5802 5797 5792 5786 5781 5777 5773 5769 5765 5761 5757 5754 5751 5747 5744 5741 5739 5737 5735 5734 5733 5732 5731
5859 5858 5857 5856 5854 5852 5851 5849 5846 5844 5842 5840 5837 5837 5831 5826 5822 5817 5812 5807 5801 5797 5791 5785 5780 5775 5771 5767 5762 5758 5755 5751 5748 5745 5742 5739 5736 5734 5731 5729 5729 5728 5727 5726
5856 5855 5853 5852 5850 5849 5847 5846 5843 5841 5838 5836 5833 5833 5826 5821 5817 5813 5808 5802 5797 5791 5786 5780 5775 5770 5765 5761 5757 5753 5749 5746 5742 5739 5736 5733 5730 5728 5726 5724 5723 5722 5722 5721
5853 5851 5850 5849 5848 5845 5843 5841 5839 5837 5835 5832 5830 5830 5822 5816 5811 5807 5802 5797 5791 5786 5781 5776 5771 5766 5761 5756 5752 5748 5744 5741 5737 5734 5730 5728 5725 5723 5720 5719 5718 5717 5717 5716
5850 5848 5848 5847 5844 5842 5840 5839 5836 5834 5831 5828 5826 5822 5817 5812 5807 5802 5797 5792 5786 5781 5776 5771 5766 5761 5757 5752 5748 5743 5739 5736 5732 5729 5725 5722 5720 5718 5715 5714 5713 5712 5712 5711
5846 5845 5843 5842 5840 5838 5836 5834 5832 5829 5827 5824 5820 5816 5811 5807 5802 5797 5792 5787 5782 5777 5772 5767 5762 5757 5753 5748 5744 5740 5735 5732 5728 5724 5721 5717 5715 5713 5711 5710 5709 5708 5708 5707
5842 5841 5839 5838 5836 5834 5832 5830 5827 5825 5822 5818 5815 5811 5806 5801 5797 5792 5788 5782 5777 5772 5767 5762 5758 5753 5749 5744 5740 5736 5732 5728 5724 5720 5717 5714 5711 5708 5707 5706 5705 5704 5704 5702
5839 5837 5835 5833 5832 5829 5827 5825 5823 5820 5816 5813 5809 5806 5801 5796 5792 5788 5783 5778 5772 5768 5763 5758 5753 5749 5745 5740 5736 5732 5728 5724 5720 5717 5714 5711 5708 5706 5704 5703 5702 5701 5700 5698
5835 5833 5831 5829 5828 5825 5826 5821 5818 5815 5811 5807 5804 5800 5796 5792 5788 5783 5778 5773 5769 5764 5759 5754 5749 5745 5741 5737 5732 5728 5724 5720 5717 5713 5711 5708 5705 5703 5701 5700 5698 5697 5696 5695
5831 5829 5827 5825 5823 5820 5818 5816 5812 5809 5805 5801 5798 5794 5791 5787 5783 5778 5773 5769 5764 5759 5754 5749 5745 5741 5737 5733 5729 5725 5721 5717 5714 5710 5708 5706 5703 5700 5698 5697 5695 5694 5693 5691
5827 5825 5824 5821 5818 5816 5814 5810 5807 5805 5799 5796 5792 5789 5785 5781 5778 5774 5769 5764 5759 5755 5750 5745 5741 5737 5733 5729 5725 5722 5718 5714 5711 5708 5705 5703 5700 5698 5696 5694 5693 5691 5690 5688
5823 5821 5819 5817 5814 5810 5808 5805 5802 5800 5796 5791 5787 5783 5779 5776 5772 5768 5763 5759 5755 5750 5745 5741 5737 5733 5729 5726 5722 5719 5715 5712 5708 5705 5702 5700 5698 5695 5694 5692 5690 5689 5688 5686
5819 5817 5814 5812 5809 5808 5803 5800 5798 5794 5789 5785 5781 5777 5773 5770 5766 5762 5757 5753 5749 5745 5741 5737 5733 5729 5726 5722 5719 5715 5712 5709 5706 5703 5700 5698 5695 5693 5691 5690 5689 5687 5686 5684
5814 5813 5810 5808 5806 5801 5797 5794 5791 5787 5783 5780 5776 5772 5768 5764 5760 5756 5752 5748 5744 5740 5736 5732 5728 5725 5721 5718 5715 5712 5709 5707 5704 5701 5699 5696 5694 5691 5690 5688 5687 5685 5684 5682
5809 5806 5804 5801 5799 5795 5792 5788 5784 5780 5777 5773 5769 5765 5761 5758 5754 5750 5746 5742 5738 5735 5731 5727 5724 5720 5717 5714 5711 5709 5706 5704 5702 5699 5696 5694 5692 5690 5688 5686 5685 5683 5681 5680
5803 5800 5798 5795 5792 5789 5785 5781 5778 5774 5770 5766 5762 5759 5755 5751 5747 5743 5739 5736 5733 5729 5726 5722 5719 5716 5713 5710 5708 5706 5703 5701 5699 5696 5694 5692 5689 5688 5686 5684 5683 5681 5679 5677
5796 5793 5791 5789 5785 5782 5778 5774 5771 5767 5763 5759 5755 5751 5748 5745 5741 5738 5734 5731 5727 5724 5721 5718 5715 5712 5710 5707 5705 5703 5700 5698 5696 5694 5691 5689 5687 5685 5684 5682 5681 5679 5677 5676